Edinburgh Airport, United Kingdom

1:07 PM GMT on December 18, 2017 (GMT +0000)
Edinburgh Airport

Weather History for EGPH - September, 2013

Change the Weather History Date:

Monday, September 2, 2013

  Actual Average Record
Temperature  
Mean Temperature 64 °F -  
Max Temperature 68 °F 61 °F 78 °F (1999)
Min Temperature 59 °F 47 °F 41 °F (2005)
Degree Days  
Heating Degree Days 2    
Growing Degree Days 14 (Base 50)    
Moisture  
Dew Point 57 °F    
Average Humidity 83    
Maximum Humidity 94    
Minimum Humidity 73    
Precipitation  
Precipitation 0.00 in 0.09 in - ()
Sea Level Pressure  
Sea Level Pressure 30.13 in    
Wind  
Wind Speed 16 mph ()    
Max Wind Speed 24 mph    
Max Gust Speed 34 mph    
Visibility 6.2 miles    
Events      
Averages and records for this station are not official NWS values.
T = Trace of Precipitation, MM = Missing Value Source: Averaged Metar Reports

Daily Weather History Graph

Daily Weather History Graph

Search for Another Location

Airport or City:

Trip Planner

Search our weather history database for the weather conditions in past years. The results will help you decide how hot, cold, wet, or windy it might be!

Date:

Astronomy

Sep. 02, 2013 Rise Set
Actual Time 6:19 AM BST 8:04 PM BST
Civil Twilight 5:40 AM BST 8:43 PM BST
Nautical Twilight 4:51 AM BST 9:32 PM BST
Astronomical Twilight 3:54 AM BST 10:28 PM BST
Moon 3:02 AM BST (9/2) 6:24 PM BST (9/2)
Length of Visible Light 15h 03m
Length of Day
13h 45m
Waning Crescent, 9% of the Moon is Illuminated
Sep 2
Waning Crescent
Sep 5
New
Sep 12
First Quarter
Sep 19
Full
Sep 27
Last Quarter

Hourly Weather History & Observations

Time (BST) Temp. Dew Point Humidity Pressure Visibility Wind Dir Wind Speed Gust Speed Precip Events Conditions
12:20 AM 59.0 °F 55.4 °F 88% 30.09 in 6.2 mi West 16.1 mph 27.6 mph N/A   Overcast
12:50 AM 59.0 °F 55.4 °F 88% 30.09 in 6.2 mi West 17.3 mph - N/A   Overcast
1:20 AM 60.8 °F 55.4 °F 82% 30.09 in 6.2 mi West 16.1 mph - N/A   Overcast
1:50 AM 60.8 °F 55.4 °F 82% 30.09 in 6.2 mi West 17.3 mph - N/A   Overcast
2:20 AM 60.8 °F 57.2 °F 88% 30.09 in 6.2 mi WSW 17.3 mph - N/A   Overcast
2:50 AM 59.0 °F 57.2 °F 94% 30.09 in 6.2 mi WSW 19.6 mph - N/A   Overcast
3:20 AM 60.8 °F 57.2 °F 88% 30.09 in 6.2 mi WSW 20.7 mph - N/A   Overcast
3:50 AM 60.8 °F 57.2 °F 88% 30.09 in 6.2 mi WSW 19.6 mph - N/A   Overcast
4:20 AM 60.8 °F 57.2 °F 88% 30.09 in 6.2 mi WSW 16.1 mph - N/A   Overcast
4:50 AM 60.8 °F 57.2 °F 88% 30.06 in 6.2 mi WSW 21.9 mph - N/A   Mostly Cloudy
5:20 AM 60.8 °F 57.2 °F 88% 30.09 in 6.2 mi WSW 19.6 mph - N/A   Overcast
5:50 AM 60.8 °F 57.2 °F 88% 30.09 in 6.2 mi West 19.6 mph - N/A   Overcast
6:20 AM 60.8 °F 57.2 °F 88% 30.09 in 6.2 mi West 16.1 mph - N/A   Overcast
6:50 AM 60.8 °F 57.2 °F 88% 30.09 in 6.2 mi West 17.3 mph - N/A   Overcast
7:20 AM 60.8 °F 55.4 °F 82% 30.09 in 6.2 mi West 13.8 mph - N/A   Mostly Cloudy
7:50 AM 60.8 °F 55.4 °F 82% 30.09 in 6.2 mi West 15.0 mph - N/A   Mostly Cloudy
8:20 AM 60.8 °F 55.4 °F 82% 30.09 in 6.2 mi West 17.3 mph - N/A   Mostly Cloudy
8:50 AM 60.8 °F 57.2 °F 88% 30.09 in 6.2 mi WSW 17.3 mph - N/A   Mostly Cloudy
9:20 AM 62.6 °F 57.2 °F 82% 30.09 in 6.2 mi WSW 20.7 mph 34.5 mph N/A   Mostly Cloudy
9:50 AM 64.4 °F 57.2 °F 77% 30.09 in 6.2 mi West 20.7 mph 32.2 mph N/A   Scattered Clouds
10:20 AM 66.2 °F 57.2 °F 73% 30.12 in 6.2 mi West 24.2 mph - N/A   Mostly Cloudy
10:50 AM 64.4 °F 57.2 °F 77% 30.12 in 6.2 mi West 19.6 mph 31.1 mph N/A   Mostly Cloudy
11:20 AM 66.2 °F 59.0 °F 78% 30.12 in 6.2 mi WSW 20.7 mph 32.2 mph N/A   Mostly Cloudy
11:50 AM 66.2 °F 57.2 °F 73% 30.12 in 6.2 mi West 20.7 mph 32.2 mph N/A   Mostly Cloudy
12:20 PM 68.0 °F 59.0 °F 73% 30.12 in 6.2 mi West 20.7 mph - N/A   Mostly Cloudy
12:50 PM 66.2 °F 59.0 °F 78% 30.12 in 6.2 mi West 19.6 mph 32.2 mph N/A   Mostly Cloudy
1:20 PM 66.2 °F 59.0 °F 78% 30.12 in 6.2 mi West 19.6 mph 31.1 mph N/A   Mostly Cloudy
1:50 PM 66.2 °F 57.2 °F 73% 30.15 in 6.2 mi West 19.6 mph 31.1 mph N/A   Mostly Cloudy
2:20 PM 66.2 °F 59.0 °F 78% 30.15 in 6.2 mi West 18.4 mph - N/A   Mostly Cloudy
2:50 PM 66.2 °F 59.0 °F 78% 30.15 in 6.2 mi West 16.1 mph - N/A   Mostly Cloudy
3:20 PM 68.0 °F 59.0 °F 73% 30.15 in 6.2 mi West 18.4 mph - N/A   Overcast
3:50 PM 66.2 °F 59.0 °F 78% 30.15 in 6.2 mi West 18.4 mph - N/A   Mostly Cloudy
4:20 PM 68.0 °F 59.0 °F 73% 30.15 in 6.2 mi West 19.6 mph - N/A   Overcast
4:50 PM 66.2 °F 59.0 °F 78% 30.15 in 6.2 mi West 15.0 mph 26.5 mph N/A   Mostly Cloudy
5:20 PM 66.2 °F 59.0 °F 78% 30.15 in 6.2 mi West 16.1 mph - N/A   Mostly Cloudy
5:50 PM 64.4 °F 57.2 °F 77% 30.18 in 6.2 mi WSW 17.3 mph - N/A   Mostly Cloudy
6:20 PM 64.4 °F 59.0 °F 83% 30.18 in 6.2 mi WSW 13.8 mph - N/A   Mostly Cloudy
6:50 PM 62.6 °F 59.0 °F 88% 30.18 in 6.2 mi West 13.8 mph - N/A   Mostly Cloudy
7:20 PM 62.6 °F 57.2 °F 82% 30.18 in 6.2 mi WSW 16.1 mph - N/A   Mostly Cloudy
7:50 PM 62.6 °F 57.2 °F 82% 30.18 in 6.2 mi WSW 15.0 mph - N/A   Mostly Cloudy
8:20 PM 62.6 °F 57.2 °F 82% 30.21 in 6.2 mi West 11.5 mph - N/A   Mostly Cloudy
8:50 PM 62.6 °F 57.2 °F 82% 30.21 in 6.2 mi West 10.4 mph - N/A   Mostly Cloudy
9:20 PM 60.8 °F 57.2 °F 88% 30.21 in 6.2 mi WSW 13.8 mph - N/A   Mostly Cloudy
9:50 PM 60.8 °F 57.2 °F 88% 30.21 in 6.2 mi WSW 18.4 mph - N/A   Scattered Clouds
10:20 PM 60.8 °F 57.2 °F 88% 30.21 in 6.2 mi WSW 12.7 mph - N/A   Mostly Cloudy
10:50 PM 60.8 °F 57.2 °F 88% 30.21 in 6.2 mi WSW 13.8 mph - N/A   Mostly Cloudy
11:20 PM 60.8 °F 57.2 °F 88% 30.24 in 6.2 mi WSW 15.0 mph - N/A   Overcast
11:50 PM 60.8 °F 57.2 °F 88% 30.24 in 6.2 mi WSW 13.8 mph - N/A   Overcast